| time (UTC) | temp F | wind direction | speed MPH | gust MPH | rain 1hr in | rain 24hr in | rain mn in | humidity % | barometer mb |
| 20260509001529 | 50 | 43 | 1.0 | 5.0 | 0.00 | 0.00 | 0.00 | 75 | 1029.1 |
| 20260509000036 | 49 | 78 | 1.0 | 7.0 | 0.00 | 0.00 | 0.00 | 76 | 1029.1 |
| 20260508234536 | 48 | 76 | 1.0 | 4.0 | 0.00 | 0.00 | 0.00 | 78 | 1029.1 |
| 20260508233027 | 47 | 81 | 0.0 | 2.0 | 0.00 | 0.00 | 0.00 | 78 | 1029.2 |
| 20260508231524 | 47 | 81 | 0.0 | 2.0 | 0.00 | 0.00 | 0.00 | 77 | 1029.1 |
| 20260508230020 | 48 | 81 | 0.0 | 1.0 | 0.00 | 0.00 | 0.00 | 76 | 1028.9 |
| 20260508224518 | 49 | 81 | 0.0 | 2.0 | 0.00 | 0.00 | 0.00 | 74 | 1028.8 |
| 20260508223017 | 49 | 73 | 1.0 | 8.0 | 0.00 | 0.00 | 0.00 | 75 | 1028.5 |
| 20260508221516 | 49 | 92 | 1.0 | 7.0 | 0.00 | 0.00 | 0.00 | 75 | 1028.2 |
| 20260508220013 | 49 | 74 | 0.0 | 5.0 | 0.00 | 0.00 | 0.00 | 75 | 1028.3 |
| 20260508214515 | 49 | 54 | 1.0 | 6.0 | 0.00 | 0.00 | 0.00 | 75 | 1028.2 |
| 20260508213020 | 49 | 65 | 1.0 | 5.0 | 0.00 | 0.00 | 0.00 | 74 | 1028.2 |
| 20260508211509 | 50 | 71 | 0.0 | 3.0 | 0.00 | 0.00 | 0.00 | 73 | 1028.3 |
| 20260508210008 | 50 | 63 | 1.0 | 4.0 | 0.00 | 0.00 | 0.00 | 73 | 1028.1 |
| 20260508204504 | 51 | 82 | 0.0 | 3.0 | 0.00 | 0.00 | 0.00 | 72 | 1028.0 |
| 20260508203100 | 51 | 84 | 2.0 | 6.0 | 0.00 | 0.00 | 0.00 | 72 | 1027.8 |
| 20260508201607 | 51 | 74 | 4.0 | 8.0 | 0.00 | 0.00 | 0.00 | 71 | 1027.9 |
| 20260508200057 | 51 | 82 | 2.0 | 10.0 | 0.00 | 0.00 | 0.00 | 71 | 1027.7 |
| 20260508194621 | 51 | 80 | 1.0 | 8.0 | 0.00 | 0.00 | 0.00 | 71 | 1027.7 |
| 20260508193106 | 51 | 88 | 2.0 | 6.0 | 0.00 | 0.00 | 0.00 | 71 | 1027.8 |
| 20260508191554 | 51 | 49 | 2.0 | 7.0 | 0.00 | 0.00 | 0.00 | 71 | 1027.7 |
| 20260508190050 | 52 | 76 | 2.0 | 5.0 | 0.00 | 0.00 | 0.00 | 70 | 1027.6 |
| 20260508184547 | 52 | 65 | 2.0 | 9.0 | 0.00 | 0.00 | 0.00 | 70 | 1027.8 |
| 20260508183047 | 52 | 86 | 2.0 | 7.0 | 0.00 | 0.00 | 0.00 | 70 | 1027.9 |
| 20260508181606 | 52 | 84 | 2.0 | 6.0 | 0.00 | 0.00 | 0.00 | 69 | 1027.9 |
| 20260508180053 | 53 | 49 | 0.0 | 5.0 | 0.00 | 0.00 | 0.00 | 69 | 1027.9 |
| 20260508174544 | 53 | 50 | 1.0 | 6.0 | 0.00 | 0.00 | 0.00 | 68 | 1028.0 |
| 20260508173042 | 54 | 72 | 3.0 | 9.0 | 0.00 | 0.00 | 0.00 | 67 | 1027.8 |
| 20260508171537 | 54 | 65 | 2.0 | 9.0 | 0.00 | 0.00 | 0.00 | 67 | 1027.7 |
| 20260508170037 | 55 | 63 | 3.0 | 8.0 | 0.00 | 0.00 | 0.00 | 66 | 1027.7 |
| 20260508164533 | 55 | 84 | 2.0 | 7.0 | 0.00 | 0.00 | 0.00 | 66 | 1027.7 |
| 20260508163032 | 54 | 67 | 2.0 | 6.0 | 0.00 | 0.00 | 0.00 | 66 | 1027.7 |
| 20260508161532 | 55 | 94 | 2.0 | 4.0 | 0.00 | 0.00 | 0.00 | 66 | 1027.7 |
| 20260508160030 | 55 | 62 | 1.0 | 8.0 | 0.00 | 0.00 | 0.00 | 65 | 1027.8 |
| 20260508154530 | 55 | 70 | 1.0 | 5.0 | 0.00 | 0.00 | 0.00 | 64 | 1027.8 |
| 20260508153039 | 56 | 57 | 2.0 | 5.0 | 0.00 | 0.00 | 0.00 | 63 | 1027.9 |
| 20260508151529 | 56 | 79 | 0.0 | 8.0 | 0.00 | 0.00 | 0.00 | 62 | 1028.0 |
| 20260508150025 | 57 | 60 | 0.0 | 5.0 | 0.00 | 0.00 | 0.00 | 60 | 1028.2 |
| 20260508144524 | 58 | 47 | 1.0 | 5.0 | 0.00 | 0.00 | 0.00 | 60 | 1028.2 |
| 20260508143026 | 58 | 48 | 1.0 | 6.0 | 0.00 | 0.00 | 0.00 | 59 | 1028.3 |
| 20260508141523 | 58 | 64 | 0.0 | 5.0 | 0.00 | 0.00 | 0.00 | 58 | 1028.3 |
| 20260508140026 | 59 | 59 | 1.0 | 9.0 | 0.00 | 0.00 | 0.00 | 57 | 1028.2 |
| 20260508134521 | 59 | 15 | 2.0 | 5.0 | 0.00 | 0.00 | 0.00 | 56 | 1028.1 |
| 20260508133022 | 60 | 53 | 2.0 | 9.0 | 0.00 | 0.00 | 0.00 | 56 | 1027.9 |
| 20260508131520 | 60 | 87 | 2.0 | 10.0 | 0.00 | 0.00 | 0.00 | 55 | 1027.8 |
| 20260508130025 | 61 | 82 | 1.0 | 6.0 | 0.00 | 0.00 | 0.00 | 55 | 1027.7 |
| 20260508124520 | 60 | 84 | 1.0 | 6.0 | 0.00 | 0.00 | 0.00 | 55 | 1027.8 |
| 20260508123019 | 60 | 30 | 2.0 | 8.0 | 0.00 | 0.00 | 0.00 | 56 | 1027.7 |
| 20260508121519 | 60 | 103 | 1.0 | 3.0 | 0.00 | 0.00 | 0.00 | 56 | 1027.7 |
| 20260508120018 | 61 | 84 | 1.0 | 6.0 | 0.00 | 0.00 | 0.00 | 56 | 1027.8 |
| 20260508114518 | 60 | 355 | 1.0 | 7.0 | 0.00 | 0.00 | 0.00 | 58 | 1027.7 |
| 20260508113019 | 60 | 81 | 0.0 | 5.0 | 0.00 | 0.00 | 0.00 | 60 | 1027.9 |
| 20260508111516 | 60 | 65 | 1.0 | 4.0 | 0.00 | 0.00 | 0.00 | 60 | 1027.8 |
| 20260508110017 | 60 | 64 | 0.0 | 2.0 | 0.00 | 0.00 | 0.00 | 62 | 1027.7 |
| 20260508104521 | 60 | 64 | 0.0 | 2.0 | 0.00 | 0.00 | 0.00 | 61 | 1027.6 |
| 20260508103018 | 61 | 64 | 0.0 | 0.0 | 0.00 | 0.00 | 0.00 | 59 | 1027.6 |
| 20260508101515 | 62 | 64 | 0.0 | 0.0 | 0.00 | 0.00 | 0.00 | 58 | 1027.6 |
| 20260508100018 | 64 | 64 | 0.0 | 2.0 | 0.00 | 0.00 | 0.00 | 55 | 1027.4 |
| 20260508094514 | 65 | 55 | 0.0 | 8.0 | 0.00 | 0.00 | 0.00 | 53 | 1027.3 |
| 20260508093021 | 66 | 84 | 0.0 | 6.0 | 0.00 | 0.00 | 0.00 | 52 | 1027.3 |
| 20260508091519 | 67 | 64 | 2.0 | 6.0 | 0.00 | 0.00 | 0.00 | 50 | 1027.3 |
| 20260508090016 | 68 | 42 | 1.0 | 8.0 | 0.00 | 0.00 | 0.00 | 51 | 1027.2 |
| 20260508084511 | 69 | 61 | 3.0 | 9.0 | 0.00 | 0.00 | 0.00 | 49 | 1027.1 |
| 20260508083011 | 69 | 85 | 5.0 | 13.0 | 0.00 | 0.00 | 0.00 | 48 | 1027.1 |
| 20260508081508 | 70 | 74 | 2.0 | 6.0 | 0.00 | 0.00 | 0.00 | 50 | 1027.2 |
| 20260508080007 | 69 | 60 | 2.0 | 8.0 | 0.00 | 0.00 | 0.00 | 51 | 1027.2 |
| 20260508074507 | 70 | 90 | 4.0 | 12.0 | 0.00 | 0.00 | 0.00 | 49 | 1027.4 |
| 20260508073007 | 70 | 49 | 2.0 | 8.0 | 0.00 | 0.00 | 0.00 | 51 | 1027.4 |
| 20260508071503 | 70 | 75 | 3.0 | 9.0 | 0.00 | 0.00 | 0.00 | 49 | 1027.4 |
| 20260508070005 | 70 | 54 | 2.0 | 10.0 | 0.00 | 0.00 | 0.00 | 52 | 1027.3 |
| 20260508064502 | 70 | 59 | 2.0 | 11.0 | 0.00 | 0.00 | 0.00 | 53 | 1027.4 |
| 20260508063101 | 70 | 94 | 3.0 | 9.0 | 0.00 | 0.00 | 0.00 | 52 | 1027.5 |
| 20260508061601 | 70 | 49 | 4.0 | 12.0 | 0.00 | 0.00 | 0.00 | 53 | 1027.5 |
| 20260508060057 | 70 | 73 | 2.0 | 11.0 | 0.00 | 0.00 | 0.00 | 55 | 1027.7 |
| 20260508054558 | 70 | 40 | 2.0 | 8.0 | 0.00 | 0.00 | 0.00 | 56 | 1028.0 |
| 20260508053055 | 70 | 61 | 3.0 | 11.0 | 0.00 | 0.00 | 0.00 | 56 | 1028.1 |
| 20260508051547 | 70 | 87 | 3.0 | 9.0 | 0.00 | 0.00 | 0.00 | 55 | 1028.4 |
| 20260508050043 | 69 | 77 | 2.0 | 10.0 | 0.00 | 0.00 | 0.00 | 56 | 1028.6 |
| 20260508044558 | 68 | 82 | 3.0 | 10.0 | 0.00 | 0.00 | 0.00 | 59 | 1028.9 |
| 20260508043044 | 68 | 107 | 4.0 | 12.0 | 0.00 | 0.00 | 0.00 | 58 | 1029.2 |
| 20260508041534 | 67 | 21 | 3.0 | 10.0 | 0.00 | 0.00 | 0.00 | 60 | 1029.3 |
| 20260508040033 | 67 | 78 | 7.0 | 14.0 | 0.00 | 0.00 | 0.00 | 58 | 1029.8 |
| 20260508034538 | 67 | 79 | 5.0 | 13.0 | 0.00 | 0.00 | 0.00 | 58 | 1030.1 |
| 20260508033029 | 67 | 59 | 2.0 | 11.0 | 0.00 | 0.00 | 0.00 | 63 | 1030.3 |
| 20260508031525 | 66 | 355 | 2.0 | 9.0 | 0.00 | 0.00 | 0.00 | 64 | 1030.4 |
| 20260508030024 | 66 | 79 | 4.0 | 13.0 | 0.00 | 0.00 | 0.00 | 64 | 1030.5 |
| 20260508024527 | 65 | 62 | 2.0 | 6.0 | 0.00 | 0.00 | 0.00 | 65 | 1030.7 |
| 20260508023021 | 64 | 74 | 2.0 | 8.0 | 0.00 | 0.00 | 0.00 | 69 | 1031.1 |
| 20260508021517 | 63 | 60 | 2.0 | 8.0 | 0.00 | 0.00 | 0.00 | 69 | 1031.3 |
| 20260508020013 | 62 | 69 | 2.0 | 8.0 | 0.00 | 0.00 | 0.00 | 71 | 1031.4 |
| 20260508014513 | 61 | 67 | 3.0 | 9.0 | 0.00 | 0.00 | 0.00 | 71 | 1031.6 |
| 20260508013010 | 61 | 94 | 2.0 | 8.0 | 0.00 | 0.00 | 0.00 | 72 | 1031.8 |
| 20260508011510 | 60 | 5 | 1.0 | 5.0 | 0.00 | 0.00 | 0.00 | 75 | 1031.8 |
| 20260508010006 | 58 | 62 | 2.0 | 5.0 | 0.00 | 0.00 | 0.00 | 76 | 1031.9 |
| 20260508004601 | 57 | 32 | 1.0 | 5.0 | 0.00 | 0.00 | 0.00 | 78 | 1031.9 |
| 20260508003059 | 55 | 63 | 1.0 | 4.0 | 0.00 | 0.00 | 0.00 | 81 | 1031.9 |